Weather History for Marfa, TX

Change the Weather History Date:

Friday, February 28, 2014

  Actual Average Record
Temperature  
Mean Temperature 57 °F -  
Max Temperature 73 °F 59 °F 78 °F (2006)
Min Temperature 41 °F 29 °F 19 °F (2011)
Degree Days  
Heating Degree Days 8    
Growing Degree Days 7 (Base 50)    
Moisture  
Dew Point 21 °F    
Average Humidity 26    
Maximum Humidity 39    
Minimum Humidity 14    
Precipitation  
Precipitation 0.00 in - - ()
Sea Level Pressure  
Sea Level Pressure 29.99 in    
Wind  
Wind Speed 11 mph (West)    
Max Wind Speed 23 mph    
Max Gust Speed 33 mph    
Visibility 10 miles    
Events      
Averages and records for this station are not official NWS values.
T = Trace of Precipitation, MM = Missing Value Source: NWS Daily Summary

Daily Weather History Graph

Daily Weather History Graph

Search for Another Location

Airport:

Trip Planner

Search our weather history database for the weather conditions in past years. The results will help you decide how hot, cold, wet, or windy it might be!

Date:

Astronomy

Feb. 28, 2014 Rise Set
Actual Time 7:23 AM CST 6:54 PM CST
Civil Twilight 6:59 AM CST 7:18 PM CST
Nautical Twilight 6:31 AM CST 7:46 PM CST
Astronomical Twilight 6:03 AM CST 8:14 PM CST
Moon 6:38 AM CST (2/28) 6:32 PM CST (2/28)
Length of Visible Light 12h 19m
Length of Day
11h 31m
Waning Crescent, 1% of the Moon is Illuminated
Feb 28
Waning Crescent
Mar 1
New
Mar 8
First Quarter
Mar 16
Full
Mar 23
Last Quarter

Hourly Weather History & Observations

Time (CST) Temp. Windchill Dew Point Humidity Pressure Visibility Wind Dir Wind Speed Gust Speed Precip Events Conditions
12:15 AM 41.0 °F 37.1 °F 14.0 °F 33% 29.93 in 10.0 mi WNW 5.8 mph - N/A   Clear
12:35 AM 42.8 °F 37.0 °F 15.8 °F 34% 29.93 in 10.0 mi WNW 10.4 mph - N/A   Clear
12:55 AM 44.6 °F 38.4 °F 15.8 °F 31% 29.93 in 10.0 mi West 12.7 mph - N/A   Clear
1:15 AM 42.8 °F 36.6 °F 15.8 °F 34% 29.93 in 10.0 mi West 11.5 mph - N/A   Clear
1:35 AM 44.6 °F 38.8 °F 17.6 °F 34% 29.93 in 10.0 mi West 11.5 mph - N/A   Clear
1:55 AM 46.4 °F 41.5 °F 17.6 °F 32% 29.94 in 10.0 mi WNW 10.4 mph - N/A   Clear
2:15 AM 48.2 °F - 17.6 °F 30% 29.94 in 10.0 mi WNW 11.5 mph - N/A   Clear
2:35 AM 50.0 °F - 17.6 °F 28% 29.94 in 10.0 mi WNW 11.5 mph - N/A   Clear
2:55 AM 42.8 °F 37.0 °F 15.8 °F 34% 29.93 in 10.0 mi West 10.4 mph - N/A   Clear
3:15 AM 44.6 °F 39.7 °F 17.6 °F 34% 29.93 in 10.0 mi WNW 9.2 mph - N/A   Clear
3:35 AM 44.6 °F 38.1 °F 17.6 °F 34% 29.93 in 10.0 mi West 13.8 mph - N/A   Clear
3:55 AM 44.6 °F 39.2 °F 17.6 °F 34% 29.92 in 10.0 mi WSW 10.4 mph - N/A   Clear
4:15 AM 46.4 °F 41.1 °F 19.4 °F 34% 29.91 in 10.0 mi SW 11.5 mph - N/A   Clear
4:35 AM 48.2 °F - 21.2 °F 34% 29.92 in 10.0 mi WSW 12.7 mph - N/A   Clear
4:55 AM 51.8 °F - 19.4 °F 28% 29.92 in 10.0 mi WSW 12.7 mph - N/A   Clear
5:15 AM 51.8 °F - 19.4 °F 28% 29.92 in 10.0 mi West 12.7 mph - N/A   Clear
5:35 AM 50.0 °F - 19.4 °F 30% 29.93 in 10.0 mi West 6.9 mph - N/A   Clear
5:55 AM 48.2 °F - 19.4 °F 32% 29.94 in 10.0 mi West 5.8 mph - N/A   Clear
6:15 AM 48.2 °F - 19.4 °F 32% 29.94 in 10.0 mi West 4.6 mph - N/A   Clear
6:35 AM 50.0 °F - 19.4 °F 30% 29.95 in 10.0 mi WSW 5.8 mph - N/A   Clear
6:55 AM 48.2 °F - 19.4 °F 32% 29.96 in 10.0 mi WSW 6.9 mph - N/A   Clear
7:15 AM 44.6 °F 40.2 °F 17.6 °F 34% 29.97 in 10.0 mi SW 8.1 mph - N/A   Clear
7:35 AM 42.8 °F 38.6 °F 19.4 °F 39% 29.99 in 10.0 mi ESE 6.9 mph - N/A   Clear
7:55 AM 44.6 °F 41.4 °F 19.4 °F 37% 29.99 in 10.0 mi SE 5.8 mph - N/A   Clear
8:15 AM 48.2 °F - 21.2 °F 34% 30.00 in 10.0 mi SE 3.5 mph - N/A   Clear
8:35 AM 51.8 °F - 21.2 °F 30% 30.01 in 10.0 mi East 3.5 mph - N/A   Clear
8:55 AM 53.6 °F - 23.0 °F 30% 30.02 in 10.0 mi SSE 3.5 mph - N/A   Clear
9:15 AM 59.0 °F - 26.6 °F 29% 30.03 in 10.0 mi West 12.7 mph 17.3 mph N/A   Clear
9:35 AM 60.8 °F - 28.4 °F 29% 30.05 in 10.0 mi West 12.7 mph - N/A   Clear
9:55 AM 62.6 °F - 28.4 °F 27% 30.05 in 10.0 mi West 16.1 mph - N/A   Clear
10:15 AM 62.6 °F - 28.4 °F 27% 30.05 in 10.0 mi West 13.8 mph - N/A   Clear
10:35 AM 64.4 °F - 28.4 °F 26% 30.05 in 10.0 mi WSW 13.8 mph 21.9 mph N/A   Clear
10:55 AM 66.2 °F - 28.4 °F 24% 30.05 in 10.0 mi WSW 15.0 mph 18.4 mph N/A   Clear
11:15 AM 66.2 °F - 28.4 °F 24% 30.04 in 10.0 mi West 15.0 mph 19.6 mph N/A   Clear
11:35 AM 68.0 °F - 26.6 °F 21% 30.04 in 10.0 mi West 23.0 mph 27.6 mph N/A   Clear
11:55 AM 69.8 °F - 26.6 °F 20% 30.04 in 10.0 mi West 20.7 mph 27.6 mph N/A   Clear
12:15 PM 69.8 °F - 26.6 °F 20% 30.04 in 10.0 mi West 20.7 mph 27.6 mph N/A   Clear
12:35 PM 69.8 °F - 26.6 °F 20% 30.03 in 10.0 mi West 20.7 mph 29.9 mph N/A   Clear
12:55 PM 69.8 °F - 26.6 °F 20% 30.03 in 10.0 mi WNW 18.4 mph 28.8 mph N/A   Clear
1:15 PM 71.6 °F - 24.8 °F 17% 30.02 in 10.0 mi WSW 15.0 mph 27.6 mph N/A   Clear
1:35 PM 71.6 °F - 24.8 °F 17% 30.01 in 10.0 mi WNW 16.1 mph 24.2 mph N/A   Clear
1:55 PM 73.4 °F - 26.6 °F 18% 30.00 in 10.0 mi WSW 15.0 mph 26.5 mph N/A   Clear
2:15 PM 71.6 °F - 24.8 °F 17% 30.00 in 10.0 mi WSW 15.0 mph 26.5 mph N/A   Clear
2:35 PM 73.4 °F - 24.8 °F 16% 29.99 in 10.0 mi West 17.3 mph 26.5 mph N/A   Clear
2:55 PM 73.4 °F - 24.8 °F 16% 29.98 in 10.0 mi WSW 16.1 mph 23.0 mph N/A   Clear
3:15 PM 73.4 °F - 24.8 °F 16% 29.98 in 10.0 mi West 17.3 mph 23.0 mph N/A   Clear
3:35 PM 73.4 °F - 24.8 °F 16% 29.98 in 10.0 mi West 18.4 mph 24.2 mph N/A   Clear
3:55 PM 73.4 °F - 24.8 °F 16% 29.98 in 10.0 mi WSW 23.0 mph 33.4 mph N/A   Clear
4:15 PM 73.4 °F - 24.8 °F 16% 29.98 in 10.0 mi WSW 20.7 mph 26.5 mph N/A   Clear
4:35 PM 73.4 °F - 23.0 °F 15% 29.97 in 10.0 mi West 18.4 mph 24.2 mph N/A   Clear
4:55 PM 73.4 °F - 23.0 °F 15% 29.97 in 10.0 mi WSW 11.5 mph 20.7 mph N/A   Clear
5:15 PM 73.4 °F - 23.0 °F 15% 29.97 in 10.0 mi West 11.5 mph 21.9 mph N/A   Clear
5:35 PM 73.4 °F - 21.2 °F 14% 29.97 in 10.0 mi WSW 15.0 mph - N/A   Clear
5:55 PM 71.6 °F - 21.2 °F 15% 29.98 in 10.0 mi WSW 9.2 mph - N/A   Clear
6:15 PM 71.6 °F - 21.2 °F 15% 29.98 in 10.0 mi West 12.7 mph - N/A   Clear
6:35 PM 69.8 °F - 21.2 °F 16% 29.98 in 10.0 mi West 10.4 mph - N/A   Clear
6:55 PM 66.2 °F - 19.4 °F 17% 29.99 in 10.0 mi West 6.9 mph - N/A   Clear
7:15 PM 62.6 °F - 19.4 °F 19% 29.99 in 10.0 mi WNW 4.6 mph - N/A   Clear
7:35 PM 57.2 °F - 17.6 °F 21% 29.99 in 10.0 mi West 4.6 mph - N/A   Clear
7:55 PM 57.2 °F - 17.6 °F 21% 29.99 in 10.0 mi Calm Calm - N/A   Clear
8:15 PM 51.8 °F - 15.8 °F 24% 29.99 in 10.0 mi NNW 3.5 mph - N/A   Clear
8:35 PM 51.8 °F - 15.8 °F 24% 30.00 in 10.0 mi ENE 6.9 mph - N/A   Clear
8:55 PM 48.2 °F - 15.8 °F 27% 30.01 in 10.0 mi NE 6.9 mph - N/A   Clear
9:15 PM 46.4 °F 42.9 °F 17.6 °F 32% 30.01 in 10.0 mi NE 6.9 mph - N/A   Clear
9:35 PM 44.6 °F 42.2 °F 15.8 °F 31% 30.02 in 10.0 mi NNE 4.6 mph - N/A   Clear
9:55 PM 48.2 °F - 17.6 °F 30% 30.02 in 10.0 mi North 3.5 mph - N/A   Clear
10:15 PM 44.6 °F 40.7 °F 15.8 °F 31% 30.03 in 10.0 mi North 6.9 mph - N/A   Clear
10:35 PM 44.6 °F 39.2 °F 17.6 °F 34% 30.03 in 10.0 mi NNW 10.4 mph - N/A   Clear
10:55 PM 46.4 °F 41.9 °F 17.6 °F 32% 30.04 in 10.0 mi NNW 9.2 mph - N/A   Clear
11:15 PM 44.6 °F 40.2 °F 17.6 °F 34% 30.04 in 10.0 mi NNW 8.1 mph - N/A   Clear
11:35 PM 44.6 °F 41.4 °F 17.6 °F 34% 30.04 in 10.0 mi NNW 5.8 mph - N/A   Clear
11:55 PM 42.8 °F 37.0 °F 17.6 °F 36% 30.04 in 10.0 mi NNW 10.4 mph - N/A   Clear